カタログに戻る

SCATHA

運用中科学MEO
NORAD 11256·PAYLOAD·🇺🇸 United States

打ち上げ Jan 30, 1979 から Cape Canaveral Space Force Station

Loading…

次のパス (今後24時間)

TLE

最新Source: Space-Track

元期: Sep 14, 2026, 09:01 UTC

1 11256U 79007A   26257.37584009 -.00000059  00000-0  00000-0 0  9991
2 11256   9.4479 275.1832 1793970 143.0406 230.9006  1.01525903143365

AllMySatでSCATHAをリアルタイム追跡

Download on the App Store